Flag Weather past 2 weeks in Leipzig, Saxony, Germany

Now
43 °F

Clear.


Feels Like: 36 °F
Forecast: 39 / 48 °F
Wind: 12 mph from South

Location: Leipzig-Schkeuditz

Current Time: Nov 23, 2014 at 10:13:31 PM

Latest Report: Nov 23, 2014 at 9:50 PM


Visibility: 10 mi

Pressure: 30.12 "Hg

Humidity: 81%

Dew point: 37 °F

Location of LeipzigLocation

Historic Weather in Leipzig — Graph

°F

Leipzig temperature yesterday

Maximum temperature yesterday: 46 °F (at 1:50 PM)
Minimum temperature yesterday: 36 °F (at 11:50 PM)
Average temperature yesterday: 40 °F

Past Weeks' High & Low Weather Summary

 TemperatureHumidityPressure
High57 °F (Nov 14, 12:20 PM)100% (Nov 8, 10:50 PM)30.33 "Hg (Nov 8, 10:50 PM)
Low36 °F (Nov 9, 1:20 AM)63% (Nov 23, 1:50 PM)29.53 "Hg (Nov 16, 4:20 AM)
Average45 °F95%29.93 "Hg
* Reported Nov 8 8:20 PM — Nov 23 8:50 PM, Leipzig, Weather by CustomWeather, © 2014

Note: Actual official high and low records may vary slightly from our data, if they occured in-between our weather recording intervals... More about our weather records

Advertising

Leipzig weather history for previous 24 hours

 ConditionsComfort  
Time TempWeatherWind HumidityBarometerVisibility
8:50 PM
Nov 23
43 °FClear.12 mph87%30.12 "Hg10 mi
8:20 PM43 °FClear.12 mph93%30.12 "Hg10 mi
7:50 PM43 °FClear.13 mph93%30.12 "Hg10 mi
7:20 PM43 °FClear.12 mph100%30.12 "Hg10 mi
6:50 PM43 °FClear.9 mph100%30.12 "Hg10 mi
6:20 PM43 °FClear.10 mph100%30.15 "Hg10 mi
5:50 PM43 °FClear.10 mph93%30.15 "Hg10 mi
5:20 PM43 °FClear.10 mph100%30.15 "Hg10 mi
4:50 PM45 °FClear.9 mph93%30.15 "Hg10 mi
4:20 PM46 °FClear.8 mph87%30.15 "Hg10 mi
3:50 PM52 °FSunny.8 mph72%30.15 "Hg10 mi
3:20 PM52 °FSunny.8 mph72%30.15 "Hg10 mi
2:50 PM54 °FSunny.10 mph67%30.15 "Hg10 mi
2:20 PM55 °FSunny.10 mph67%30.15 "Hg10 mi
1:50 PM55 °FSunny.10 mph63%30.18 "Hg10 mi
1:20 PM54 °FSunny.10 mph67%30.18 "Hg10 mi
12:50 PM54 °FSunny.10 mph67%30.18 "Hg10 mi
12:20 PM52 °FSunny.8 mph72%30.21 "Hg10 mi
11:50 AM50 °FSunny.8 mph71%30.21 "Hg10 mi
11:20 AM48 °FSunny.9 mph76%30.21 "Hg10 mi
10:50 AM48 °FSunny.10 mph76%30.21 "Hg10 mi
10:20 AM45 °FSunny.9 mph81%30.21 "Hg10 mi
9:50 AM43 °FSunny.7 mph87%30.21 "Hg10 mi
9:20 AM41 °FSunny.13 mph87%30.21 "Hg10 mi
8:50 AM39 °FSunny.12 mph93%30.21 "Hg10 mi
8:20 AM37 °FSunny.10 mph93%30.21 "Hg10 mi
7:50 AM36 °FSunny.9 mph100%30.21 "Hg10 mi
7:20 AM36 °FClear.12 mph100%30.21 "Hg10 mi
6:50 AM36 °FClear.7 mph100%30.21 "Hg10 mi
6:20 AM36 °FClear.9 mph100%30.18 "Hg10 mi
5:50 AM36 °FClear.6 mph100%30.18 "Hg10 mi
5:20 AM36 °FClear.8 mph100%30.18 "Hg10 mi
4:50 AM36 °FClear.8 mph100%30.18 "Hg10 mi
4:20 AM36 °FClear.8 mph100%30.18 "Hg10 mi
3:50 AM36 °FClear.8 mph100%30.18 "Hg10 mi
3:20 AM36 °FClear.9 mph100%30.18 "Hg10 mi
2:50 AM36 °FClear.8 mph100%30.18 "Hg10 mi
2:20 AM36 °FClear.9 mph100%30.18 "Hg10 mi
1:50 AM36 °FClear.9 mph100%30.18 "Hg10 mi
1:20 AM36 °FClear.9 mph100%30.21 "Hg10 mi
12:50 AM36 °FClear.8 mph100%30.21 "Hg10 mi
12:20 AM36 °FClear.10 mph100%30.21 "Hg10 mi
11:50 PM
Nov 22
36 °FClear.10 mph100%30.21 "Hg10 mi
11:20 PM37 °FClear.8 mph100%30.21 "Hg10 mi
10:50 PM37 °FClear.9 mph93%30.21 "Hg10 mi
10:20 PM39 °FClear.9 mph93%30.21 "Hg10 mi
Weather by CustomWeather, © 2014

See weather overviewHow to use our weather pages